Private Wetterstation Sandau
Wetterdaten: Woche 05.11.12 - 11.11.12 (KW45)
Datum Zeit Temp. A. Feuchte A. Luftdruck Regen Wind Richtung Taupunkt Windchill
05.11.2012 00:00 7,0 C 92 % 997,3 hPa 0,0 l/m 6,8 km/h (2 Bft) SW 5,8 C 5,9 C
05.11.2012 01:00 6,6 C 92 % 997,1 hPa 0,0 l/m 7,0 km/h (2 Bft) SW 5,4 C 5,4 C
05.11.2012 02:00 6,5 C 92 % 997,0 hPa 0,0 l/m 6,7 km/h (2 Bft) SW 5,2 C 5,2 C
05.11.2012 03:00 6,5 C 91 % 997,1 hPa 0,0 l/m 7,7 km/h (2 Bft) S-SW 5,0 C 5,0 C
05.11.2012 04:00 6,8 C 89 % 997,1 hPa 0,0 l/m 7,5 km/h (2 Bft) SW 5,2 C 5,5 C
05.11.2012 05:00 7,0 C 88 % 997,1 hPa 0,0 l/m 8,7 km/h (2 Bft) S-SW 5,0 C 5,4 C
05.11.2012 06:00 7,0 C 87 % 997,1 hPa 0,0 l/m 7,4 km/h (2 Bft) SW 5,0 C 5,8 C
05.11.2012 07:00 7,0 C 86 % 997,4 hPa 0,0 l/m 4,1 km/h (1 Bft) S-SW 4,8 C 6,6 C
05.11.2012 08:00 7,2 C 86 % 997,5 hPa 0,0 l/m 7,8 km/h (2 Bft) S-SW 5,0 C 5,9 C
05.11.2012 09:00 7,7 C 84 % 997,6 hPa 0,0 l/m 8,9 km/h (2 Bft) S-SW 5,2 C 6,2 C
05.11.2012 10:00 8,3 C 84 % 997,7 hPa 0,0 l/m 11,4 km/h (2 Bft) SW 5,7 C 6,4 C
05.11.2012 11:00 8,9 C 82 % 997,6 hPa 0,0 l/m 14,0 km/h (3 Bft) SW 6,0 C 6,7 C
05.11.2012 12:00 9,6 C 80 % 997,4 hPa 0,0 l/m 14,0 km/h (3 Bft) W-SW 6,2 C 7,6 C
05.11.2012 13:00 8,6 C 82 % 997,6 hPa 0,5 l/m 17,2 km/h (3 Bft) W 5,8 C 6,0 C
05.11.2012 14:00 8,3 C 82 % 997,8 hPa 0,0 l/m 19,6 km/h (3 Bft) W-SW 5,4 C 5,3 C
05.11.2012 15:00 8,0 C 83 % 998,1 hPa 0,0 l/m 13,3 km/h (3 Bft) W 5,2 C 5,8 C
05.11.2012 16:00 7,6 C 85 % 998,6 hPa 0,0 l/m 12,9 km/h (3 Bft) W-SW 5,2 C 5,5 C
05.11.2012 17:00 7,4 C 83 % 999,3 hPa 0,0 l/m 11,6 km/h (2 Bft) W-NW 4,6 C 5,3 C
05.11.2012 18:00 7,0 C 80 % 1000,3 hPa 0,0 l/m 10,0 km/h (2 Bft) W-NW 3,8 C 5,2 C
05.11.2012 19:00 6,6 C 81 % 1001,2 hPa 0,0 l/m 12,0 km/h (2 Bft) W-NW 3,7 C 4,2 C
05.11.2012 20:00 6,3 C 84 % 1002,2 hPa 0,0 l/m 9,7 km/h (2 Bft) W-NW 3,8 C 4,5 C
05.11.2012 21:00 6,3 C 84 % 1003,2 hPa 0,0 l/m 10,1 km/h (2 Bft) W-NW 3,8 C 4,3 C
05.11.2012 22:00 6,0 C 85 % 1004,3 hPa 0,0 l/m 10,2 km/h (2 Bft) W-NW 3,8 C 4,0 C
05.11.2012 23:00 6,0 C 85 % 1005,2 hPa 0,0 l/m 9,9 km/h (2 Bft) W-NW 3,7 C 4,0 C
06.11.2012 00:00 5,8 C 85 % 1005,9 hPa 0,0 l/m 10,8 km/h (2 Bft) W 3,5 C 3,4 C
06.11.2012 01:00 5,4 C 86 % 1006,6 hPa 0,0 l/m 8,5 km/h (2 Bft) W-NW 3,3 C 3,7 C
06.11.2012 02:00 4,3 C 88 % 1007,3 hPa 0,0 l/m 6,1 km/h (2 Bft) W 2,5 C 3,2 C
06.11.2012 03:00 3,5 C 89 % 1007,7 hPa 0,0 l/m 9,1 km/h (2 Bft) W-SW 1,9 C 1,3 C
06.11.2012 04:00 3,3 C 90 % 1008,2 hPa 0,0 l/m 8,1 km/h (2 Bft) W 1,8 C 1,2 C
06.11.2012 05:00 3,8 C 92 % 1008,8 hPa 0,0 l/m 8,7 km/h (2 Bft) W 2,6 C 1,8 C
06.11.2012 06:00 4,1 C 91 % 1009,4 hPa 0,0 l/m 6,2 km/h (2 Bft) W 2,7 C 3,0 C
06.11.2012 07:00 3,9 C 90 % 1010,5 hPa 0,0 l/m 6,6 km/h (2 Bft) W 2,4 C 2,5 C
06.11.2012 08:00 4,0 C 90 % 1011,2 hPa 0,0 l/m 11,4 km/h (2 Bft) NW 2,5 C 1,4 C
06.11.2012 09:00 4,4 C 89 % 1011,9 hPa 0,0 l/m 9,3 km/h (2 Bft) W-NW 2,7 C 2,4 C
06.11.2012 10:00 5,1 C 87 % 1012,6 hPa 0,0 l/m 7,7 km/h (2 Bft) W 3,2 C 3,6 C
06.11.2012 11:00 6,3 C 82 % 1013,1 hPa 0,0 l/m 8,5 km/h (2 Bft) W-NW 3,5 C 4,7 C
06.11.2012 12:00 7,3 C 78 % 1013,4 hPa 0,0 l/m 15,6 km/h (3 Bft) W-SW 3,7 C 4,6 C
06.11.2012 13:00 8,0 C 75 % 1013,3 hPa 0,0 l/m 16,2 km/h (3 Bft) W 3,7 C 5,4 C
06.11.2012 14:00 8,2 C 73 % 1013,4 hPa 0,0 l/m 14,5 km/h (3 Bft) W-SW 3,8 C 5,9 C
06.11.2012 15:00 7,9 C 75 % 1013,4 hPa 0,0 l/m 15,3 km/h (3 Bft) W-SW 3,7 C 5,4 C
06.11.2012 16:00 6,9 C 79 % 1013,4 hPa 0,0 l/m 9,3 km/h (2 Bft) S-SW 3,5 C 5,3 C
06.11.2012 17:00 6,8 C 80 % 1013,1 hPa 0,0 l/m 11,6 km/h (2 Bft) W-SW 3,5 C 4,5 C
06.11.2012 18:00 6,7 C 81 % 1012,9 hPa 0,0 l/m 14,2 km/h (3 Bft) W-SW 3,6 C 4,0 C
06.11.2012 19:00 6,8 C 80 % 1012,8 hPa 0,0 l/m 14,9 km/h (3 Bft) W-SW 3,7 C 4,1 C
06.11.2012 20:00 6,3 C 82 % 1012,7 hPa 0,0 l/m 12,4 km/h (3 Bft) W-SW 3,5 C 4,0 C
06.11.2012 21:00 6,3 C 85 % 1012,6 hPa 0,5 l/m 17,6 km/h (3 Bft) W 3,8 C 3,1 C
06.11.2012 22:00 6,1 C 87 % 1011,6 hPa 0,5 l/m 19,5 km/h (3 Bft) W-SW 4,1 C 2,8 C
06.11.2012 23:00 6,0 C 87 % 1010,8 hPa 0,0 l/m 20,9 km/h (4 Bft) W-SW 4,0 C 2,3 C
07.11.2012 00:00 6,1 C 88 % 1010,2 hPa 0,5 l/m 20,1 km/h (4 Bft) W 4,3 C 2,6 C
07.11.2012 01:00 6,2 C 91 % 1009,8 hPa 0,5 l/m 21,0 km/h (4 Bft) W-SW 4,8 C 2,6 C
07.11.2012 02:00 6,7 C 91 % 1009,9 hPa 0,0 l/m 19,8 km/h (3 Bft) W-SW 5,4 C 3,4 C
07.11.2012 03:00 7,4 C 91 % 1010,1 hPa 0,0 l/m 18,4 km/h (3 Bft) W 5,9 C 4,4 C
07.11.2012 04:00 7,6 C 91 % 1010,7 hPa 0,0 l/m 12,8 km/h (3 Bft) W 6,3 C 5,4 C
07.11.2012 05:00 7,8 C 92 % 1011,3 hPa 0,5 l/m 8,8 km/h (2 Bft) W-SW 6,6 C 6,4 C
07.11.2012 06:00 8,0 C 92 % 1012,0 hPa 0,5 l/m 7,6 km/h (2 Bft) W-SW 6,9 C 6,9 C
07.11.2012 07:00 8,3 C 93 % 1012,9 hPa 0,5 l/m 8,4 km/h (2 Bft) W-NW 7,2 C 7,1 C
07.11.2012 08:00 8,6 C 93 % 1014,0 hPa 0,0 l/m 7,3 km/h (2 Bft) W-NW 7,5 C 7,7 C
07.11.2012 09:00 9,1 C 90 % 1015,2 hPa 0,0 l/m 13,0 km/h (3 Bft) W-NW 7,5 C 7,2 C
07.11.2012 10:00 9,8 C 86 % 1016,1 hPa 0,0 l/m 14,3 km/h (3 Bft) W-NW 7,6 C 8,6 C
07.11.2012 11:00 10,2 C 83 % 1016,9 hPa 0,0 l/m 15,9 km/h (3 Bft) W-NW 7,4 C 10,2 C
07.11.2012 12:00 10,5 C 85 % 1017,3 hPa 0,0 l/m 11,1 km/h (2 Bft) W 8,0 C 10,5 C
07.11.2012 13:00 10,7 C 86 % 1017,5 hPa 0,0 l/m 10,4 km/h (2 Bft) W-NW 8,4 C 10,7 C
07.11.2012 14:00 10,5 C 90 % 1017,6 hPa 0,0 l/m 10,7 km/h (2 Bft) W-SW 8,8 C 10,5 C
07.11.2012 15:00 10,9 C 87 % 1018,0 hPa 0,0 l/m 13,6 km/h (3 Bft) W-NW 8,8 C 10,9 C
07.11.2012 16:00 10,6 C 88 % 1018,3 hPa 0,0 l/m 16,0 km/h (3 Bft) W-SW 8,7 C 10,6 C
07.11.2012 17:00 10,4 C 87 % 1018,5 hPa 0,0 l/m 9,5 km/h (2 Bft) W 8,3 C 10,4 C
07.11.2012 18:00 10,2 C 85 % 1018,7 hPa 0,0 l/m 15,7 km/h (3 Bft) W 7,7 C 10,2 C
07.11.2012 19:00 10,2 C 82 % 1019,0 hPa 0,0 l/m 13,2 km/h (3 Bft) W-SW 7,4 C 10,2 C
07.11.2012 20:00 10,0 C 81 % 1019,2 hPa 0,0 l/m 10,0 km/h (2 Bft) W 6,8 C 9,5 C
07.11.2012 21:00 9,8 C 80 % 1019,4 hPa 0,0 l/m 13,2 km/h (3 Bft) W 6,6 C 8,1 C
07.11.2012 22:00 9,6 C 76 % 1019,6 hPa 0,0 l/m 15,8 km/h (3 Bft) W 5,6 C 7,4 C
07.11.2012 23:00 9,3 C 78 % 1019,4 hPa 0,0 l/m 18,2 km/h (3 Bft) W-SW 5,7 C 6,8 C
08.11.2012 00:00 9,1 C 78 % 1019,1 hPa 0,0 l/m 20,7 km/h (4 Bft) W 5,5 C 6,3 C
08.11.2012 01:00 8,9 C 77 % 1019,0 hPa 0,0 l/m 18,3 km/h (3 Bft) W-SW 5,1 C 6,3 C
08.11.2012 02:00 8,9 C 77 % 1018,8 hPa 0,0 l/m 22,1 km/h (4 Bft) W-SW 5,1 C 5,9 C
08.11.2012 03:00 8,9 C 77 % 1018,1 hPa 0,0 l/m 20,0 km/h (4 Bft) S-SW 5,1 C 6,1 C
08.11.2012 04:00 8,8 C 78 % 1017,6 hPa 0,0 l/m 17,8 km/h (3 Bft) W-SW 5,2 C 6,3 C
08.11.2012 05:00 8,9 C 78 % 1017,1 hPa 0,0 l/m 17,6 km/h (3 Bft) W-SW 5,4 C 6,3 C
08.11.2012 06:00 9,0 C 78 % 1016,5 hPa 0,0 l/m 17,4 km/h (3 Bft) W 5,3 C 6,6 C
08.11.2012 07:00 9,1 C 77 % 1016,1 hPa 0,0 l/m 15,4 km/h (3 Bft) W-SW 5,3 C 6,8 C
08.11.2012 08:00 9,3 C 77 % 1016,0 hPa 0,0 l/m 15,5 km/h (3 Bft) W-SW 5,4 C 7,1 C
08.11.2012 09:00 9,4 C 77 % 1015,9 hPa 0,0 l/m 16,9 km/h (3 Bft) W 5,6 C 7,1 C
08.11.2012 10:00 9,7 C 76 % 1015,9 hPa 0,0 l/m 18,0 km/h (3 Bft) W-SW 5,7 C 7,3 C
08.11.2012 11:00 9,9 C 76 % 1015,7 hPa 0,0 l/m 15,3 km/h (3 Bft) W-SW 5,9 C 7,8 C
08.11.2012 12:00 9,9 C 77 % 1015,3 hPa 0,0 l/m 20,2 km/h (4 Bft) W 6,1 C 7,3 C
08.11.2012 13:00 9,9 C 78 % 1014,9 hPa 0,0 l/m 15,1 km/h (3 Bft) W 6,2 C 7,8 C
08.11.2012 14:00 9,6 C 81 % 1014,5 hPa 0,0 l/m 14,7 km/h (3 Bft) W-SW 6,5 C 7,5 C
08.11.2012 15:00 9,3 C 84 % 1014,0 hPa 0,0 l/m 13,6 km/h (3 Bft) W-SW 6,6 C 7,3 C
08.11.2012 16:00 9,0 C 84 % 1013,6 hPa 0,0 l/m 12,2 km/h (2 Bft) W-SW 6,5 C 7,2 C
08.11.2012 17:00 9,0 C 84 % 1013,6 hPa 0,0 l/m 11,3 km/h (2 Bft) S-SW 6,5 C 7,4 C
08.11.2012 18:00 9,1 C 84 % 1013,8 hPa 0,0 l/m 15,1 km/h (3 Bft) W-SW 6,5 C 6,9 C
08.11.2012 19:00 9,2 C 84 % 1013,6 hPa 0,0 l/m 14,0 km/h (3 Bft) W 6,6 C 7,1 C
08.11.2012 20:00 9,2 C 84 % 1013,7 hPa 0,0 l/m 17,0 km/h (3 Bft) W 6,6 C 6,7 C
08.11.2012 21:00 8,8 C 87 % 1013,8 hPa 0,0 l/m 10,4 km/h (2 Bft) W 6,7 C 7,3 C
08.11.2012 22:00 8,8 C 87 % 1014,0 hPa 0,0 l/m 13,0 km/h (3 Bft) W-SW 6,8 C 6,9 C
08.11.2012 23:00 8,8 C 87 % 1014,2 hPa 0,0 l/m 13,4 km/h (3 Bft) W 6,8 C 6,8 C
09.11.2012 00:00 8,8 C 86 % 1014,4 hPa 0,0 l/m 11,7 km/h (2 Bft) W 6,7 C 7,1 C
09.11.2012 01:00 8,7 C 86 % 1014,7 hPa 0,0 l/m 9,7 km/h (2 Bft) W 6,5 C 7,3 C
09.11.2012 02:00 8,4 C 88 % 1015,0 hPa 0,0 l/m 13,5 km/h (3 Bft) W-SW 6,5 C 6,2 C
09.11.2012 03:00 8,4 C 89 % 1015,3 hPa 0,0 l/m 9,6 km/h (2 Bft) W-SW 6,7 C 6,9 C
09.11.2012 04:00 8,5 C 89 % 1015,4 hPa 0,0 l/m 11,7 km/h (2 Bft) W-SW 6,7 C 6,6 C
09.11.2012 05:00 8,4 C 89 % 1015,6 hPa 0,0 l/m 8,8 km/h (2 Bft) W 6,7 C 7,2 C
09.11.2012 06:00 8,4 C 89 % 1016,0 hPa 0,0 l/m 9,1 km/h (2 Bft) W 6,7 C 7,0 C
09.11.2012 07:00 8,3 C 89 % 1016,4 hPa 0,0 l/m 10,4 km/h (2 Bft) W-SW 6,6 C 6,7 C
09.11.2012 08:00 8,5 C 89 % 1017,0 hPa 0,0 l/m 13,8 km/h (3 Bft) W-SW 6,7 C 6,3 C
09.11.2012 09:00 9,1 C 88 % 1017,6 hPa 0,0 l/m 11,7 km/h (2 Bft) W-SW 7,2 C 7,4 C
09.11.2012 10:00 9,7 C 85 % 1017,9 hPa 0,0 l/m 14,0 km/h (3 Bft) W-SW 7,3 C 7,8 C
09.11.2012 11:00 10,3 C 83 % 1017,9 hPa 0,0 l/m 13,7 km/h (3 Bft) W-SW 7,6 C 10,1 C
09.11.2012 12:00 10,9 C 80 % 1017,6 hPa 0,0 l/m 11,0 km/h (2 Bft) W-SW 7,7 C 10,9 C
09.11.2012 13:00 10,7 C 81 % 1017,1 hPa 0,0 l/m 9,1 km/h (2 Bft) W-SW 7,6 C 10,7 C
09.11.2012 14:00 10,6 C 80 % 1016,8 hPa 0,0 l/m 6,8 km/h (2 Bft) SW 7,3 C 10,6 C
09.11.2012 15:00 10,2 C 81 % 1016,7 hPa 0,0 l/m 3,0 km/h (1 Bft) SW 7,2 C 10,2 C
09.11.2012 16:00 9,7 C 83 % 1016,4 hPa 0,0 l/m 2,2 km/h (1 Bft) S-SO 6,9 C 9,7 C
09.11.2012 17:00 9,2 C 84 % 1016,1 hPa 0,0 l/m 3,5 km/h (1 Bft) S-SW 6,7 C 9,1 C
09.11.2012 18:00 8,9 C 84 % 1016,0 hPa 0,0 l/m 3,4 km/h (1 Bft) S-SO 6,4 C 8,8 C
09.11.2012 19:00 8,8 C 84 % 1015,6 hPa 0,0 l/m 3,2 km/h (1 Bft) S-SO 6,2 C 8,7 C
09.11.2012 20:00 8,4 C 84 % 1015,2 hPa 0,0 l/m 3,3 km/h (1 Bft) SO 5,9 C 8,1 C
09.11.2012 21:00 7,9 C 84 % 1014,8 hPa 0,0 l/m 3,3 km/h (1 Bft) S-SO 5,4 C 7,5 C
09.11.2012 22:00 7,6 C 84 % 1014,1 hPa 0,0 l/m 6,4 km/h (2 Bft) SO 5,1 C 6,7 C
09.11.2012 23:00 7,6 C 84 % 1012,9 hPa 0,0 l/m 6,8 km/h (2 Bft) SO 5,0 C 6,6 C
10.11.2012 00:00 7,5 C 82 % 1012,2 hPa 0,0 l/m 6,5 km/h (2 Bft) SO 4,6 C 6,6 C
10.11.2012 01:00 7,2 C 81 % 1011,5 hPa 0,0 l/m 5,2 km/h (1 Bft) SO 4,2 C 6,8 C
10.11.2012 02:00 6,9 C 81 % 1010,7 hPa 0,0 l/m 5,4 km/h (1 Bft) S-SO 3,9 C 6,2 C
10.11.2012 03:00 6,7 C 80 % 1010,0 hPa 0,0 l/m 5,9 km/h (2 Bft) S-SO 3,5 C 5,9 C
10.11.2012 04:00 6,0 C 81 % 1009,3 hPa 0,0 l/m 6,8 km/h (2 Bft) SO 2,9 C 4,8 C
10.11.2012 05:00 5,2 C 82 % 1008,6 hPa 0,0 l/m 7,4 km/h (2 Bft) SO 2,4 C 3,6 C
10.11.2012 06:00 4,9 C 84 % 1008,0 hPa 0,0 l/m 3,5 km/h (1 Bft) SO 2,4 C 4,5 C
10.11.2012 07:00 4,3 C 86 % 1007,5 hPa 0,0 l/m 5,0 km/h (1 Bft) SO 2,1 C 3,5 C
10.11.2012 08:00 4,4 C 87 % 1007,3 hPa 0,0 l/m 2,5 km/h (1 Bft) SO 2,5 C 4,2 C
10.11.2012 09:00 6,2 C 83 % 1007,3 hPa 0,0 l/m 5,8 km/h (2 Bft) SO 3,5 C 5,3 C
10.11.2012 10:00 7,9 C 78 % 1006,6 hPa 0,0 l/m 6,0 km/h (2 Bft) S-SO 4,4 C 7,2 C
10.11.2012 11:00 8,7 C 76 % 1006,2 hPa 0,0 l/m 4,7 km/h (1 Bft) S-SO 4,7 C 8,3 C
10.11.2012 12:00 8,9 C 76 % 1005,4 hPa 0,0 l/m 5,7 km/h (1 Bft) SO 4,9 C 8,3 C
10.11.2012 13:00 8,8 C 78 % 1004,8 hPa 0,0 l/m 3,1 km/h (1 Bft) SO 5,2 C 8,7 C
10.11.2012 14:00 9,3 C 78 % 1004,6 hPa 0,0 l/m 5,0 km/h (1 Bft) S-SO 5,7 C 8,9 C
10.11.2012 15:00 9,3 C 80 % 1004,5 hPa 0,0 l/m 6,2 km/h (2 Bft) S 6,0 C 8,6 C
10.11.2012 16:00 8,6 C 86 % 1004,0 hPa 1,0 l/m 6,5 km/h (2 Bft) SO 6,4 C 7,8 C
10.11.2012 17:00 8,4 C 90 % 1003,3 hPa 1,6 l/m 3,7 km/h (1 Bft) SO 6,8 C 8,0 C
10.11.2012 18:00 8,4 C 90 % 1003,8 hPa 0,5 l/m 4,8 km/h (1 Bft) S-SO 6,9 C 7,9 C
10.11.2012 19:00 8,4 C 91 % 1003,3 hPa 0,0 l/m 4,9 km/h (1 Bft) SO 7,0 C 7,9 C
10.11.2012 20:00 8,4 C 91 % 1003,4 hPa 0,0 l/m 4,9 km/h (1 Bft) SO 7,0 C 7,9 C
10.11.2012 21:00 7,9 C 91 % 1003,1 hPa 0,0 l/m 5,8 km/h (2 Bft) SO 6,6 C 7,2 C
10.11.2012 22:00 7,5 C 91 % 1003,2 hPa 0,0 l/m 5,3 km/h (1 Bft) S-SO 6,1 C 6,9 C
10.11.2012 23:00 7,6 C 91 % 1003,0 hPa 0,0 l/m 2,8 km/h (1 Bft) S-SO 6,1 C 7,6 C
11.11.2012 00:00 7,7 C 90 % 1003,4 hPa 0,0 l/m 2,9 km/h (1 Bft) S-SO 6,2 C 7,5 C
11.11.2012 01:00 7,8 C 91 % 1003,5 hPa 0,0 l/m 4,8 km/h (1 Bft) SW 6,4 C 7,2 C
11.11.2012 02:00 7,9 C 91 % 1003,6 hPa 0,0 l/m 4,9 km/h (1 Bft) S 6,5 C 7,4 C
11.11.2012 03:00 7,6 C 90 % 1003,7 hPa 0,0 l/m 5,5 km/h (1 Bft) S 6,0 C 6,9 C
11.11.2012 04:00 7,4 C 90 % 1004,3 hPa 0,0 l/m 4,2 km/h (1 Bft) S-SO 5,8 C 6,9 C
11.11.2012 05:00 7,1 C 90 % 1005,0 hPa 0,0 l/m 3,5 km/h (1 Bft) S-SO 5,6 C 6,9 C
11.11.2012 06:00 7,2 C 91 % 1005,9 hPa 0,0 l/m 5,0 km/h (1 Bft) S-SW 5,8 C 6,5 C
11.11.2012 07:00 7,7 C 92 % 1006,6 hPa 0,0 l/m 5,3 km/h (1 Bft) S-SW 6,5 C 7,0 C
11.11.2012 08:00 8,2 C 92 % 1007,5 hPa 0,0 l/m 5,8 km/h (2 Bft) S 7,0 C 7,5 C
11.11.2012 09:00 9,7 C 92 % 1008,5 hPa 0,0 l/m 8,0 km/h (2 Bft) W-SW 8,4 C 9,1 C
11.11.2012 10:00 10,9 C 88 % 1009,2 hPa 0,0 l/m 6,4 km/h (2 Bft) W-SW 8,9 C 10,9 C
11.11.2012 11:00 11,4 C 83 % 1009,8 hPa 0,0 l/m 8,4 km/h (2 Bft) W 8,5 C 11,4 C
11.11.2012 12:00 11,6 C 80 % 1010,2 hPa 0,0 l/m 10,3 km/h (2 Bft) NW 8,1 C 11,6 C
11.11.2012 13:00 11,1 C 78 % 1010,8 hPa 0,0 l/m 6,2 km/h (2 Bft) W-NW 7,5 C 11,1 C
11.11.2012 14:00 11,0 C 77 % 1011,2 hPa 0,0 l/m 5,9 km/h (2 Bft) W-NW 7,2 C 11,0 C
11.11.2012 15:00 10,6 C 78 % 1012,1 hPa 0,0 l/m 4,1 km/h (1 Bft) W 6,9 C 10,6 C
11.11.2012 16:00 9,5 C 82 % 1013,0 hPa 0,0 l/m 2,8 km/h (1 Bft) W 6,5 C 9,4 C
11.11.2012 17:00 8,8 C 84 % 1013,5 hPa 0,0 l/m 1,7 km/h (1 Bft) W 6,2 C 8,8 C
11.11.2012 18:00 8,3 C 86 % 1014,7 hPa 0,0 l/m 2,8 km/h (1 Bft) W-SW 6,0 C 8,2 C
11.11.2012 19:00 8,0 C 87 % 1015,3 hPa 0,0 l/m 2,1 km/h (1 Bft) W-SW 5,9 C 7,9 C
11.11.2012 20:00 7,8 C 88 % 1016,0 hPa 0,0 l/m 5,5 km/h (1 Bft) W-SW 5,9 C 7,0 C
11.11.2012 21:00 7,4 C 89 % 1016,8 hPa 0,0 l/m 4,5 km/h (1 Bft) SW 5,6 C 7,0 C
11.11.2012 22:00 7,2 C 89 % 1017,5 hPa 0,0 l/m 6,5 km/h (2 Bft) W-SW 5,5 C 6,2 C
11.11.2012 23:00 6,8 C 89 % 1018,1 hPa 0,0 l/m 6,8 km/h (2 Bft) W-SW 5,1 C 5,7 C
Min-Datum _ 06.11.12 06.11.12 05.11.12 - 06.11.12 - 06.11.12 06.11.12
_ Min-Zeit 04:31 14:11 01:56 - 02:46 - 04:31 03:21
Minimum _ 3,2 C 72 % 996,7 hPa - 0,0 km/h (0 Bft) - 1,7 C -0,8 C
Max-Datum _ 11.11.12 07.11.12 07.11.12 10.11.12 06.11.12 - 11.11.12 11.11.12
_ Max-Zeit 12:06 06:36 22:16 17:06 22:56 - 10:36 12:06
Maximum _ 11,8 C 93 % 1019,7 hPa 1,6 l/m 46,4 km/h
W-SW (6 Bft)
- 9,2 C 11,8 C
Durchschnitt _ 8,0 C 85 % 1010,5 hPa #7,3 l/m 10,1 km/h (2 Bft) W-SW 5,6 C 6,7 C
(c) by David Heller